[[{"header":{"parameterUnit":"m.s-1","parameterCategory":1,"la1":30.2991,"la2":30.254,"lo1":-89.0895,"lo2":-89.0444,"dy":0.0017,"dx":0.0017,"nx":28,"ny":28,"refTime":"2023-09-06T09:00:00:Z","depth":0,"parameterNumber":2,"parameterNumberName":"U-component_of_WINDS"},"data":[0,0,0,0,0,0,0,0,0,0,0,0,0,0,0,0,0,0,0,0,0,0,0,0,0,0,0,0,0,0,0,0,0,0,0,0,0,0,0,0,0,0,0,0,0,0,0,0,0,0,0,0,0,0,0,0,0,0,-3.1563,-3.1562,0,-3.1446,-3.1444,-3.1443,-3.1339,-3.1338,-3.1336,-3.1335,-3.121,-3.1208,-3.1205,0,0,0,0,0,0,0,0,0,0,0,0,0,-3.1695,-3.1693,-3.1564,-3.1562,-3.1561,-3.1446,-3.1444,-3.1443,-3.1339,-3.1337,-3.1336,-3.1335,-3.121,-3.1208,-3.1205,0,0,0,0,0,0,0,0,0,0,0,0,0,-3.1613,-3.1692,-3.1564,-3.1495,-3.1488,-3.1446,-3.1444,-3.1442,-3.1339,-3.1337,-3.1336,-3.1334,-3.1211,-3.1208,-3.1205,-3.122,0,0,-3.1195,-3.1193,0,0,0,0,0,0,0,0,-3.1618,-3.1609,-3.1507,-3.15,-3.1491,-3.1405,-3.1444,-3.1368,-3.134,-3.1395,-3.1335,-3.1333,-3.1276,-3.1267,-3.1249,-3.1214,-3.1209,-3.1194,-3.1192,-3.1191,-3.119,0,0,0,0,0,0,0,-3.1624,-3.1613,-3.1517,-3.1505,-3.1496,-3.1469,-3.1455,-3.1429,-3.1347,-3.139,-3.1383,-3.137,-3.1271,-3.1252,-3.1245,-3.1207,-3.1194,-3.1191,-3.1189,-3.1188,-3.118,-3.1181,0,0,0,0,0,0,-3.1641,-3.1618,-3.152,-3.1513,-3.1552,-3.1468,-3.1453,-3.1435,-3.1347,-3.1332,-3.1372,-3.1366,-3.1259,-3.1249,-3.124,-3.1252,-3.1191,-3.1188,-3.1186,-3.1178,-3.118,-3.1182,0,0,0,0,0,0,-3.1644,-3.1633,-3.1525,-3.1564,-3.1548,-3.1468,-3.1448,-3.1433,-3.1414,-3.1333,-3.1318,-3.1368,-3.1257,-3.1245,-3.1226,-3.1246,-3.1186,-3.1183,-3.1176,-3.1178,-3.1181,-3.1276,0,0,0,0,0,0,-3.1648,-3.1635,-3.164,-3.1565,-3.1546,-3.1515,-3.1449,-3.1432,-3.1409,-3.14,-3.1325,-3.1311,-3.1255,-3.1232,-3.1223,-3.124,-3.1181,-3.1173,-3.1177,-3.118,-3.1271,-3.1282,-3.1291,0,0,0,0,0,-3.1653,-3.1671,-3.1641,-3.163,-3.1552,-3.1516,-3.1505,-3.1441,-3.1411,-3.1416,-3.1364,-3.1313,-3.1246,-3.1231,-3.122,-3.1237,-3.1172,-3.1176,-3.118,-3.1266,-3.128,-3.1291,0,0,0,0,0,0,-3.1748,-3.1659,-3.1626,-3.162,-3.1577,-3.1498,-3.1502,-3.1458,-3.1421,-3.1413,-3.1335,-3.1319,-3.1309,-3.1271,-3.1255,-3.1247,-3.1202,-3.1204,-3.1272,-3.1284,-3.1294,-3.1302,-3.1178,0,0,0,0,0,-3.177,-3.1749,-3.1672,-3.1674,-3.1654,-3.1583,-3.1564,-3.1519,-3.147,-3.1451,-3.1398,-3.1351,-3.1319,-3.13,-3.1266,-3.1266,-3.1248,-3.1272,-3.1283,-3.1291,-3.1293,-3.129,-3.13,-3.1195,-3.1195,-3.1195,0,0,-3.1811,-3.176,-3.1751,-3.1692,-3.1653,-3.1632,-3.1567,-3.1548,-3.1531,-3.1447,-3.1426,-3.1387,-3.1329,-3.132,-3.1313,-3.1288,-3.1319,-3.1297,-3.1304,-3.1301,-3.1295,-3.1305,-3.1314,-3.1198,-3.1197,-3.1197,0,0,-3.1876,-3.1836,-3.1834,-3.1797,-3.174,-3.1692,-3.1692,-3.1621,-3.1592,-3.1571,-3.1507,-3.1486,-3.1434,-3.1395,-3.1369,-3.1423,-3.1375,-3.1415,-3.1466,-3.1464,-3.1472,-3.1479,-3.1497,-3.1504,-3.1417,-3.1417,-3.1418,0,-3.1934,-3.1902,-3.1837,-3.1822,-3.1797,-3.1724,-3.172,-3.1687,-3.1621,-3.1605,-3.1579,-3.1512,-3.1468,-3.1449,-3.1463,-3.1444,-3.144,-3.1421,-3.1477,-3.1483,-3.1488,-3.1504,-3.1511,-3.1422,-3.1422,-3.1421,-3.1421,0,-3.1976,-3.1955,-3.1959,-3.19,-3.1876,-3.1867,-3.18,-3.1783,-3.1742,-3.1697,-3.1676,-3.1622,-3.1576,-3.1569,-3.1526,-3.1543,-3.153,-3.1492,-3.1444,-3.1504,-3.1518,-3.1524,-3.143,-3.1428,-3.1426,-3.1425,0,0,-3.2094,-3.2002,-3.2005,-3.1977,-3.191,-3.1891,-3.1879,-3.1836,-3.1823,-3.1781,-3.1768,-3.1726,-3.1691,-3.1662,-3.1615,-3.1614,-3.1659,-3.1575,-3.1572,-3.1591,-3.1673,-3.17,-3.1709,-3.1628,-3.1629,-3.1629,-3.1677,0,-3.2147,-3.2121,-3.2064,-3.2056,-3.2035,-3.1966,-3.1955,-3.1912,-3.1871,-3.1846,-3.1799,-3.1771,-3.1727,-3.1709,-3.1705,-3.1654,-3.1674,-3.165,-3.1612,-3.1612,-3.1626,-3.1716,-3.1745,-3.1792,-3.1682,-3.1683,-3.1684,0,-3.2204,-3.2168,-3.2159,-3.2094,-3.2083,-3.2074,-3.2031,-3.2009,-3.1959,-3.1929,-3.1898,-3.1848,-3.183,-3.1789,-3.1762,-3.1748,-3.1729,-3.1703,-3.1703,-3.1694,-3.1649,-3.1708,-3.1806,-3.1812,-3.1692,-3.1691,-3.169,0,-3.229,-3.224,-3.2227,-3.2206,-3.213,-3.2126,-3.2094,-3.2043,-3.2021,-3.1983,-3.1968,-3.1928,-3.1906,-3.1876,-3.1816,-3.1792,-3.1796,-3.175,-3.1769,-3.177,-3.177,-3.177,-3.1864,-3.1763,-3.1762,-3.1762,-3.1762,0,-3.2353,-3.2349,-3.2265,-3.2257,-3.2251,-3.2185,-3.2181,-3.2142,-3.2098,-3.208,-3.2018,-3.2003,-3.1926,-3.1902,-3.1855,-3.184,-3.183,-3.1804,-3.1791,-3.1808,-3.1812,-3.1793,-3.1787,-3.1764,-3.1764,-3.1763,-3.1763,0,-3.2446,-3.239,-3.2371,-3.2303,-3.2285,-3.2284,-3.2224,-3.2213,-3.217,-3.2149,-3.214,-3.2071,-3.2039,-3.1977,-3.1928,-3.1896,-3.1891,-3.187,-3.1908,-3.19,-3.1922,-3.192,-3.2005,-3.2012,-3.1909,-3.191,-3.1911,0,-3.2489,-3.2485,-3.2416,-3.2401,-3.2373,-3.2349,-3.2327,-3.2263,-3.2243,-3.2187,-3.2183,-3.2147,-3.2114,-3.2067,-3.2011,-3.1974,-3.195,-3.1982,-3.1943,-3.1961,-3.1948,-3.1948,-3.1947,-3.199,-3.1991,-3.1993,-3.1994,0,-3.257,-3.2543,-3.2515,-3.2478,-3.2454,-3.2421,-3.2385,-3.2376,-3.2303,-3.2283,-3.2251,-3.2227,-3.2178,-3.2142,-3.2097,-3.2062,-3.2015,-3.2007,-3.2009,-3.2025,-3.2047,-3.2034,-3.193,-3.2004,-3.2003,-3.2002,-3.2002,-3.2001,-3.2638,-3.2631,-3.2583,-3.2554,-3.252,-3.2488,-3.2475,-3.2431,-3.2404,-3.236,-3.2324,-3.2295,-3.2246,-3.218,-3.2149,-3.2124,-3.2102,-3.2105,-3.2105,-3.2107,-3.2113,-3.2054,-3.2116,-3.2116,-3.2115,-3.2115,-3.2115,0,-3.2715,-3.2681,-3.2655,-3.2607,-3.2585,-3.2546,-3.2504,-3.2487,-3.2463,-3.2422,-3.2393,-3.2356,-3.2322,-3.2265,-3.2226,-3.2218,-3.2195,-3.2209,-3.2208,-3.22,-3.2136,-3.2138,-3.2228,-3.2228,-3.2228,-3.2228,-3.2228,-3.2228,-3.2752,-3.2739,-3.2706,-3.2676,-3.2641,-3.2613,-3.2593,-3.2563,-3.253,-3.2493,-3.2465,-3.2429,-3.2381,-3.2339,-3.2306,-3.229,-3.2277,-3.2298,-3.2275,-3.2216,-3.2205,-3.2195,-3.2196,-3.2296,-3.2297,-3.2341,-3.2341,-3.2341]},{"header":{"parameterUnit":"m.s-1","parameterCategory":1,"la1":30.2991,"la2":30.254,"lo1":-89.0895,"lo2":-89.0444,"dy":0.0017,"dx":0.0017,"nx":28,"ny":28,"refTime":"2023-09-06T09:00:00:Z","depth":0,"parameterNumber":3,"parameterNumberName":"V-component_of_WINDS"},"data":[0,0,0,0,0,0,0,0,0,0,0,0,0,0,0,0,0,0,0,0,0,0,0,0,0,0,0,0,0,0,0,0,0,0,0,0,0,0,0,0,0,0,0,0,0,0,0,0,0,0,0,0,0,0,0,0,0,0,3.352,3.3521,0,3.3591,3.3592,3.3593,3.3655,3.3656,3.3657,3.3657,3.3724,3.3725,3.3726,0,0,0,0,0,0,0,0,0,0,0,0,0,3.3436,3.3437,3.352,3.3521,3.3522,3.3591,3.3592,3.3593,3.3655,3.3656,3.3657,3.3658,3.3724,3.3725,3.3726,0,0,0,0,0,0,0,0,0,0,0,0,0,3.3486,3.3437,3.352,3.3562,3.3566,3.3591,3.3592,3.3593,3.3655,3.3656,3.3657,3.3658,3.3723,3.3725,3.3726,3.3714,0,0,3.3731,3.3732,0,0,0,0,0,0,0,0,3.3483,3.3489,3.3555,3.3559,3.3564,3.3616,3.3587,3.3633,3.3655,3.3621,3.3657,3.3659,3.3687,3.3691,3.3702,3.3717,3.372,3.3731,3.3732,3.3733,3.3734,0,0,0,0,0,0,0,3.3479,3.3486,3.3548,3.3555,3.3561,3.3576,3.3584,3.3596,3.3646,3.3624,3.3629,3.3637,3.3689,3.37,3.3704,3.3721,3.3731,3.3733,3.3734,3.3734,3.3732,3.3731,0,0,0,0,0,0,3.347,3.3483,3.3546,3.355,3.3525,3.3576,3.3586,3.3598,3.3647,3.3655,3.3636,3.3639,3.3697,3.3702,3.3706,3.3697,3.3733,3.3735,3.3735,3.3733,3.3731,3.373,0,0,0,0,0,0,3.3468,3.3475,3.3543,3.3518,3.3528,3.3576,3.359,3.3599,3.361,3.3655,3.3664,3.3638,3.3698,3.3704,3.3713,3.37,3.3735,3.3737,3.3734,3.3732,3.3731,3.3676,0,0,0,0,0,0,3.3465,3.3474,3.347,3.3517,3.3529,3.3549,3.3589,3.3599,3.3613,3.3618,3.366,3.3667,3.3699,3.371,3.3714,3.3703,3.3738,3.3735,3.3733,3.3731,3.3679,3.3673,3.3667,0,0,0,0,0,3.3462,3.345,3.347,3.3477,3.3526,3.3548,3.3554,3.3593,3.3612,3.3608,3.3638,3.3666,3.3701,3.371,3.3716,3.3704,3.3736,3.3734,3.3731,3.3682,3.3674,3.3667,0,0,0,0,0,0,3.3397,3.3457,3.3479,3.3483,3.351,3.3558,3.3555,3.3583,3.3604,3.3608,3.3653,3.3662,3.3665,3.3686,3.3695,3.3696,3.3722,3.3721,3.3683,3.3676,3.367,3.3664,3.3739,0,0,0,0,0,3.3384,3.3399,3.3449,3.3447,3.346,3.3505,3.3516,3.3544,3.3573,3.3585,3.3615,3.3641,3.3658,3.3668,3.3686,3.3683,3.3693,3.3678,3.3672,3.3667,3.3665,3.3666,3.366,3.3723,3.3723,3.3723,0,0,3.3355,3.339,3.3396,3.3435,3.346,3.3473,3.3514,3.3526,3.3536,3.3586,3.3597,3.362,3.3652,3.3655,3.3657,3.3672,3.365,3.3664,3.3659,3.366,3.3663,3.3657,3.3652,3.3721,3.3721,3.3721,0,0,3.331,3.3338,3.334,3.3365,3.3403,3.3434,3.3434,3.3479,3.3497,3.3509,3.3548,3.356,3.3587,3.361,3.3624,3.3591,3.3618,3.3595,3.3564,3.3565,3.356,3.3556,3.3545,3.354,3.3593,3.3593,3.3593,0,3.3269,3.3293,3.3337,3.3348,3.3365,3.3413,3.3416,3.3437,3.3478,3.3488,3.3504,3.3542,3.3566,3.3576,3.3569,3.3579,3.358,3.359,3.3557,3.3554,3.355,3.354,3.3536,3.359,3.3591,3.3591,3.3591,0,3.3241,3.3257,3.3254,3.3296,3.3312,3.3318,3.3363,3.3374,3.3401,3.343,3.3442,3.3474,3.35,3.3505,3.353,3.3519,3.3527,3.3549,3.3576,3.3541,3.3532,3.3529,3.3586,3.3587,3.3588,3.3589,0,0,3.3155,3.3224,3.3222,3.3243,3.329,3.3302,3.3311,3.3339,3.3348,3.3375,3.3383,3.3408,3.343,3.3447,3.3475,3.3476,3.3449,3.3499,3.35,3.3489,3.3439,3.3422,3.3417,3.3468,3.3467,3.3467,3.3437,0,3.3118,3.3139,3.3181,3.3188,3.3204,3.3252,3.326,3.3289,3.3316,3.3333,3.3362,3.3379,3.3407,3.3418,3.3421,3.3452,3.344,3.3454,3.3475,3.3475,3.3466,3.3412,3.3393,3.3364,3.3434,3.3433,3.3433,0,3.3077,3.3105,3.3114,3.3163,3.3171,3.3178,3.3208,3.3224,3.3258,3.3278,3.3298,3.3331,3.3342,3.3368,3.3384,3.3393,3.3405,3.3421,3.3421,3.3424,3.3452,3.3414,3.3355,3.3351,3.3428,3.3428,3.3428,0,3.3014,3.3053,3.3065,3.3081,3.3138,3.3142,3.3165,3.3201,3.3216,3.3242,3.3253,3.3278,3.3293,3.3312,3.335,3.3365,3.3363,3.3391,3.3379,3.3378,3.3376,3.3375,3.3318,3.3383,3.3383,3.3383,3.3383,0,3.2968,3.2972,3.3039,3.3045,3.3052,3.31,3.3105,3.3132,3.3164,3.3177,3.3219,3.3229,3.328,3.3296,3.3325,3.3335,3.3341,3.3357,3.3365,3.3353,3.3351,3.3361,3.3364,3.3382,3.3382,3.3382,3.3382,0,3.2899,3.2943,3.2959,3.3013,3.3027,3.3029,3.3074,3.3083,3.3114,3.313,3.3136,3.3184,3.3206,3.3247,3.3278,3.3299,3.3302,3.3315,3.3291,3.3296,3.3282,3.3283,3.3228,3.3224,3.3291,3.329,3.329,0,3.2867,3.2872,3.2927,3.294,3.2963,3.2983,3.3,3.3048,3.3063,3.3104,3.3107,3.3133,3.3156,3.3188,3.3225,3.325,3.3265,3.3244,3.3268,3.3257,3.3265,3.3264,3.3265,3.3238,3.3237,3.3236,3.3236,0,3.2805,3.2828,3.2852,3.2884,3.2904,3.2931,3.296,3.2967,3.3022,3.3037,3.3061,3.3079,3.3114,3.3139,3.317,3.3193,3.3223,3.3228,3.3227,3.3215,3.3201,3.3209,3.3276,3.3229,3.323,3.323,3.323,3.3231,3.2754,3.2762,3.2803,3.2829,3.2856,3.2883,3.2895,3.2929,3.2951,3.2985,3.3011,3.3034,3.3069,3.3115,3.3136,3.3153,3.3167,3.3165,3.3164,3.3163,3.3159,3.3199,3.3159,3.3159,3.3159,3.3159,3.316,0,3.2695,3.2725,3.2749,3.279,3.281,3.2841,3.2875,3.2889,3.2909,3.2941,3.2964,3.2993,3.3018,3.3058,3.3086,3.3092,3.3107,3.3098,3.3097,3.3102,3.3144,3.3143,3.3085,3.3086,3.3086,3.3086,3.3086,3.3086,3.2667,3.2683,3.271,3.274,3.2769,3.2794,3.2811,3.2836,3.2862,3.2893,3.2915,3.2942,3.2978,3.3009,3.3033,3.3044,3.3052,3.3039,3.3054,3.3092,3.3099,3.3106,3.3105,3.304,3.304,3.3012,3.3011,3.3011]}]]